sat.trackr.live / text

‹ back to catalog

STARLINK-6242

NORAD 56424 · 2023-061BC

PAYLOAD ACTIVE UNKNOWN

§ Identity

Operator
Country
US
Launch date
2023-05-04
Launch site
AFETR
Launch vehicle
Mass (kg)
RCS (m²)

Purposes: comms

External: N2YO · Heavens-Above · Gunter

§ Orbital elements

Epoch: 2026-05-24T23:15:37.553760Z

Period
94.32 min
Inclination
43.0036°
Eccentricity
0.0001425
Mean motion
15.26741587 rev/d
Perigee alt
484.6 km
Apogee alt
486.5 km
Semi-major
6,863.7 km
B*
3.7058e-5
RAAN
108.9387°
Arg perigee
270.4657°
Mean anomaly
89.6031°
Rev number
16,862

§ Raw data

STARLINK-62421 56424U 23061BC  26144.96918465  .00000734  00000+0  37058-4 0  99982 56424  43.0036 108.9387 0001425 270.4657  89.6031 15.26741587168624

JSON: /api/v1/satellites/56424 · /tle

For live sub-satellite position, see the globe view (requires WebGL).

§ Visibility from observer

Set your observer location to see the next 7 days of passes ≥ 10°. The values pass through the URL so the page stays shareable.

No JS? Fill the form by hand. The geolocation button needs JavaScript.